FLOCK 4BE-23

Last updated on Mon Sep 16 2024 00:02:03 GMT+0000 (Coordinated Universal Time)

1 60490U 24149Y 24258.90293147 .00016260 00000+0 79279-3 0 9996 2 60490 97.4428 334.0134 0005064 22.8677 337.2782 15.18387111 4417
UTC large
Height (km)
Speed (km/s)
/
Latitude / Longitude
Inclination (degrees)
Orbital Period (minutes)
Azimuth
Elevation
Range (km)
Doppler Factor

Next 0 passes for location: London (51.5072 / 0.1276)

Sorry there are no passes over London.